EHI
0 0 0 0 0 0 0 1 2 1 0 1 1 5 12 14 12 11 18 33 45 40 32 32 32 26 17 12 9 6 3 2 2 3 4 3 1 2 2 1 1 0 0 0 0 0 0 0 0
0 0 0 0 0 0 0 3 4 2 1 2 5 10 16 16 12 12 20 36 44 39 33 35 38 33 22 13 9 6 3 2 2 3 4 3 1 1 1 1 1 0 0 0 0 0 0 0 0
0 0 0 0 0 0 1 3 4 3 2 5 11 17 20 16 13 16 25 37 41 36 35 41 44 39 28 17 10 7 5 6 6 6 5 3 1 0 0 1 1 0 0 0 0 0 0 0 0
0 0 0 0 0 0 1 2 3 2 4 9 17 23 22 18 18 23 29 34 33 30 33 41 46 44 35 24 15 11 11 12 12 10 9 6 4 2 1 1 0 0 0 0 0 0 0 0 0
0 0 0 0 0 1 1 1 1 1 5 12 21 27 25 21 21 25 27 26 25 27 30 37 45 47 39 28 18 15 14 14 13 12 11 11 10 7 4 1 1 1 0 0 0 0 0 0 0
0 0 0 0 0 0 0 0 1 3 7 13 22 28 27 22 19 21 21 20 24 29 31 32 36 39 35 25 19 17 16 15 13 11 10 12 11 8 5 2 1 0 0 0 0 0 0 0 0
0 0 0 0 0 0 0 1 3 8 13 16 22 28 28 23 19 18 19 22 27 31 28 23 22 24 24 22 19 18 18 16 14 10 8 7 7 7 5 2 1 1 1 0 0 0 1 1 1
0 0 0 0 0 0 1 2 6 14 22 26 31 37 37 31 26 25 26 30 33 32 27 22 18 17 17 18 19 18 17 16 13 9 5 4 5 7 5 3 3 3 2 1 0 0 1 2 2
0 0 0 0 0 0 1 3 9 17 27 36 45 50 48 40 35 33 35 39 42 38 31 27 24 21 17 18 21 18 14 13 11 8 5 4 6 8 7 7 8 6 3 1 0 0 0 1 1
0 0 0 0 0 0 1 3 7 15 26 39 50 57 54 46 38 37 39 42 43 40 34 31 31 28 26 25 23 17 12 13 12 11 9 7 7 10 13 15 13 7 3 1 1 1 1 1 1
0 0 0 0 0 1 3 6 12 19 28 38 50 58 55 46 39 38 39 38 36 34 32 34 35 36 37 35 26 18 18 19 18 17 15 11 11 13 18 19 14 8 3 1 2 3 2 1 0
0 0 0 1 2 4 8 16 25 31 35 40 48 55 53 44 41 40 39 36 32 28 29 33 37 41 44 42 34 28 27 25 21 20 19 15 14 14 17 18 13 8 5 3 3 4 3 1 1
0 0 0 2 3 6 13 23 33 36 37 42 45 48 48 46 43 42 39 37 34 28 27 33 38 41 43 44 40 34 32 26 20 18 18 15 14 15 17 18 15 10 8 8 7 6 5 5 5
0 0 0 1 3 5 10 21 29 32 35 41 42 42 43 44 43 41 39 39 37 34 33 36 37 38 38 38 35 30 26 22 17 15 14 13 14 18 22 21 17 13 13 15 14 11 9 8 8
0 0 0 0 1 2 6 16 25 30 34 39 40 39 39 40 40 39 38 40 40 40 40 39 37 36 35 33 28 22 19 18 18 18 17 13 13 17 20 19 16 15 16 17 14 12 11 10 8
0 0 0 0 0 0 4 14 22 27 32 36 38 35 32 33 36 36 35 36 39 42 42 40 37 37 36 33 27 21 18 18 19 21 20 16 12 11 11 12 13 14 16 14 11 10 11 9 9
0 0 0 0 0 0 4 14 22 26 29 33 35 31 26 27 31 32 30 31 34 38 39 37 36 37 36 33 29 24 22 22 21 19 19 17 12 7 6 7 10 13 15 13 10 11 11 10 9
0 0 0 0 0 1 6 16 23 25 27 30 32 29 24 23 26 27 25 25 28 31 33 32 33 33 33 31 30 28 26 25 21 16 17 17 14 10 7 7 8 11 14 12 10 12 12 10 8
0 0 0 0 1 3 10 19 24 24 26 29 30 29 25 23 23 23 22 20 22 25 26 27 27 28 28 27 27 26 25 23 19 16 17 18 16 12 10 8 9 12 14 12 10 10 10 8 6
0 0 0 0 1 4 10 19 25 24 24 27 31 30 27 25 24 22 20 19 20 21 21 22 22 22 23 23 22 22 21 18 16 15 16 17 16 14 12 12 14 15 15 13 10 8 7 6 4
0 0 0 0 1 2 6 14 24 25 22 23 28 30 28 27 26 23 20 19 19 18 18 18 18 19 19 18 18 17 16 15 13 14 14 15 14 13 12 13 15 15 14 12 10 7 5 4 4
0 0 0 0 0 1 2 8 19 25 22 20 24 30 31 29 28 25 20 18 17 17 17 17 18 18 17 16 15 13 12 11 10 11 12 12 12 12 10 10 12 12 11 10 9 7 5 3 3
0 0 0 0 0 0 0 3 12 20 21 19 23 30 33 31 30 27 22 17 16 16 16 17 17 17 15 14 13 11 9 8 7 8 9 10 10 9 7 7 8 8 8 8 7 6 5 4 4
0 0 0 0 0 0 0 2 6 14 17 18 24 31 32 31 28 25 22 18 16 16 16 16 16 16 15 14 12 11 9 8 7 7 7 7 6 5 5 6 6 5 5 5 5 6 6 5 4
0 0 0 0 0 0 0 1 5 11 16 18 25 30 30 28 24 20 19 18 17 17 16 16 16 16 16 15 14 12 10 9 8 7 6 5 2 2 3 4 4 3 2 2 3 4 4 3 3
0 0 0 0 0 0 0 2 6 11 15 19 24 27 26 25 22 17 16 17 16 16 16 16 16 16 16 15 14 13 11 9 9 8 5 3 1 0 1 1 1 1 1 1 1 2 2 1 1
0 0 0 0 0 0 0 2 6 10 15 19 22 24 25 24 20 15 15 16 15 14 14 15 14 14 13 12 11 10 9 8 7 6 3 1 0 0 0 0 0 0 0 0 0 0 0 0 0
0 0 0 0 0 0 0 1 5 8 13 15 17 21 24 22 19 16 16 15 14 13 13 13 12 11 9 8 8 6 5 4 3 3 1 0 0 0 0 0 0 0 0 0 0 0 0 0 0
0 0 0 0 0 0 0 1 4 8 10 11 12 16 19 19 19 19 18 15 14 13 13 12 10 8 6 6 5 3 2 1 0 0 0 0 0 0 0 0 0 0 0 0 0 0 0 0 0
0 0 0 0 0 0 0 2 6 8 10 10 10 13 15 16 19 20 17 14 13 13 13 12 9 7 6 4 3 2 1 0 0 0 0 0 0 0 0 0 0 0 0 0 0 0 0 0 0
Wind_Speed
10 13 11 9 8 10 12 7 5 8 7 9 9 11 14 13 10 11 8 13 17 17 15 14 12 12 12 12 11 11 11 10 10 10 9 8 8 8 8 8 8 7 7 7 7 7 6 6 6
11 14 11 8 9 11 7 4 7 9 9 8 9 11 15 14 13 12 10 13 16 15 13 13 13 12 12 12 12 11 11 10 10 9 9 8 7 7 7 7 7 6 6 6 6 6 5 5 5
12 16 9 9 12 10 3 6 9 10 9 7 8 10 11 9 10 9 11 15 15 14 13 14 14 13 13 12 12 11 11 10 9 9 8 8 7 6 6 6 6 5 5 4 5 5 4 4 3
9 9 8 10 13 7 2 7 8 9 8 7 9 11 10 7 7 11 14 14 15 14 14 14 13 13 12 12 12 11 11 10 9 8 8 7 6 5 5 5 5 4 4 3 4 3 3 2 2
10 8 11 12 11 5 4 7 7 6 8 8 9 12 11 9 13 14 14 13 13 14 15 14 13 13 12 12 12 11 10 9 8 8 7 6 5 5 4 4 4 3 3 2 2 2 2 2 1
9 9 12 12 9 4 5 5 6 7 8 9 12 13 9 8 11 12 13 11 12 14 15 13 13 13 12 12 11 10 9 8 7 7 6 5 4 4 4 4 3 3 2 2 2 2 2 2 2
11 11 14 13 7 6 5 4 5 5 7 6 7 11 10 9 8 11 11 11 12 13 13 11 11 11 11 11 11 10 9 8 7 6 5 4 4 4 4 4 4 3 3 2 2 2 3 3 4
12 12 16 13 7 7 8 6 5 6 6 8 8 10 10 11 8 10 10 11 12 11 10 9 9 9 10 10 10 10 9 8 6 5 4 4 5 5 6 6 5 4 4 4 4 4 4 5 6
14 12 13 11 6 6 10 8 7 7 10 10 12 15 15 15 12 10 10 10 10 10 8 8 8 6 7 8 9 9 8 7 6 5 4 4 4 4 5 6 7 6 5 5 6 6 6 7 8
11 11 10 5 1 5 9 7 8 7 9 12 16 18 17 14 12 10 11 10 9 9 7 7 7 5 5 6 6 3 4 5 4 3 3 3 2 1 1 5 5 5 5 6 7 8 8 8 6
12 12 6 2 5 5 6 5 5 7 6 11 16 18 15 13 11 11 10 10 9 7 7 7 7 6 4 4 4 2 1 2 1 1 2 1 1 0 2 2 2 3 4 4 4 5 5 5 4
10 7 5 0 4 3 4 5 7 10 8 13 16 17 14 12 11 11 10 10 9 8 8 7 7 6 5 4 3 2 2 2 1 1 2 1 1 1 1 0 1 2 2 2 2 2 4 4 5
10 5 3 2 4 4 5 8 10 10 12 14 15 16 12 12 12 10 10 9 9 8 7 7 7 6 4 4 3 3 3 2 1 1 2 2 1 2 2 1 1 2 1 1 1 2 3 3 4
8 7 6 5 6 6 7 10 8 9 11 14 14 13 11 11 11 10 10 9 8 7 7 6 6 5 4 3 3 2 2 2 1 2 3 3 2 2 2 2 2 2 2 2 2 3 2 2 2
6 7 8 8 8 8 8 7 9 11 12 13 13 12 10 11 10 10 9 8 8 7 6 5 6 5 4 3 3 3 2 3 2 2 3 4 3 3 2 2 1 2 2 2 2 3 2 2 2
9 10 10 11 11 11 11 9 11 13 13 12 12 12 10 10 10 9 9 8 8 7 6 5 5 5 4 3 2 2 3 3 3 3 3 4 4 4 3 2 2 3 2 2 2 2 2 2 2
12 12 11 11 13 12 10 9 11 11 12 12 12 11 10 10 10 8 9 8 7 7 6 6 6 5 4 3 3 3 3 3 3 3 3 3 3 4 3 2 2 3 3 2 3 2 2 2 2
11 11 11 11 12 11 9 10 12 12 11 12 12 11 10 10 9 9 9 8 6 7 7 6 6 5 4 3 2 2 3 3 3 3 3 4 3 4 4 2 3 3 3 2 3 3 3 2 2
9 9 9 11 10 9 9 12 13 14 13 13 12 11 10 10 11 10 9 9 7 7 6 6 6 5 3 3 2 2 2 2 2 3 3 3 3 3 3 3 3 3 2 3 3 3 4 2 1
9 9 9 8 9 8 8 12 13 13 13 13 13 12 11 11 11 10 9 8 8 7 6 6 5 5 4 3 2 2 2 2 2 2 2 3 3 3 3 3 3 3 2 2 3 3 3 3 2
9 9 8 7 9 8 6 9 12 12 11 11 11 11 11 12 11 11 9 9 8 7 6 6 5 5 5 3 2 2 2 1 2 2 2 3 3 3 4 4 4 4 3 2 3 3 3 3 3
9 8 7 7 8 7 8 8 9 11 10 10 10 11 11 12 11 10 10 9 8 7 7 6 5 5 4 3 3 3 3 3 2 2 2 2 3 3 3 4 4 4 4 3 4 3 3 3 3
7 6 7 8 9 8 7 7 5 8 10 10 11 12 12 11 11 11 10 10 8 7 7 6 6 5 4 4 4 4 4 3 2 2 2 2 2 3 4 4 4 4 4 4 4 3 3 3 3
6 7 7 7 8 10 8 7 6 8 11 10 10 10 11 12 10 10 10 9 8 7 7 6 5 4 4 4 5 5 4 3 4 3 3 2 2 3 5 5 4 4 4 4 4 3 3 3 3
7 5 3 5 6 8 7 5 2 5 8 9 11 11 10 11 10 9 10 9 7 7 6 6 5 5 5 5 5 4 3 2 3 4 3 3 3 4 5 5 4 4 4 4 4 4 3 3 3
6 6 5 6 6 6 5 2 2 6 8 10 12 13 11 11 10 10 9 8 7 7 6 6 5 4 4 4 4 4 3 3 3 4 3 3 3 3 4 4 4 5 5 5 4 4 4 3 3
6 5 6 7 7 6 4 2 3 7 10 12 13 13 11 10 10 9 8 8 7 7 5 6 5 4 4 4 3 3 4 4 4 3 3 3 3 3 4 4 4 4 5 5 5 3 4 4 3
6 4 3 5 5 6 5 4 3 5 6 9 11 12 12 11 10 9 8 7 7 6 6 5 5 4 4 3 3 4 3 3 4 4 4 4 4 4 4 4 4 4 5 5 4 4 4 4 3
6 6 5 6 6 6 4 2 4 6 7 8 9 10 11 11 10 9 8 7 7 6 6 5 5 4 4 4 4 4 3 3 4 4 4 4 3 3 3 4 4 3 4 4 4 4 4 4 4
6 6 5 5 6 6 4 2 4 6 8 8 9 10 10 11 9 9 8 7 6 6 6 5 4 4 4 4 4 4 4 4 4 4 3 3 3 3 3 3 4 4 4 5 5 5 5 5 5
Wind_Direction
266 259 251 252 244 240 243 224 141 100 92 75 67 78 76 59 71 99 119 108 107 112 117 116 115 122 127 127 128 129 130 131 129 126 121 115 109 104 101 98 96 95 96 97 95 95 95 93 93
269 261 248 247 248 246 232 168 111 97 95 100 87 86 83 74 79 102 112 109 109 116 121 116 118 121 125 127 127 128 130 132 133 132 128 123 119 114 110 105 102 99 99 100 100 99 99 98 99
265 262 253 242 245 257 242 129 116 112 119 111 92 71 67 74 86 105 116 113 111 114 111 114 121 122 125 127 129 130 132 132 135 136 134 131 127 122 117 113 108 104 102 104 106 106 103 103 103
249 234 238 247 247 242 218 120 122 132 121 116 107 86 78 63 95 115 117 115 119 124 118 117 120 121 123 126 129 131 132 134 138 137 135 134 131 128 126 121 117 111 109 114 114 115 113 115 117
239 244 237 246 247 219 122 114 141 144 133 130 111 98 85 78 99 112 116 119 125 122 117 120 117 118 122 126 128 130 133 135 136 134 134 135 136 136 136 133 129 125 126 133 132 128 133 147 168
230 234 240 243 230 177 134 138 152 145 134 128 118 107 93 100 110 119 120 122 120 116 116 119 119 120 122 126 128 127 129 130 130 129 131 132 136 143 149 149 145 143 151 158 162 160 186 206 221
245 252 253 247 216 174 152 135 133 139 112 107 104 100 113 117 122 124 121 119 110 112 118 130 131 129 125 123 124 126 127 129 131 133 141 149 160 169 175 172 169 169 175 191 200 212 226 228 234
247 270 269 257 223 178 142 122 114 127 115 95 92 112 127 132 138 122 118 113 108 108 115 124 132 137 141 135 131 130 130 133 138 146 161 178 192 197 200 196 184 183 193 212 222 230 239 242 243
243 258 266 257 221 159 139 143 127 101 90 74 73 99 125 137 135 131 123 109 104 101 101 107 113 132 144 139 137 143 143 146 151 164 182 199 212 202 205 207 170 191 209 222 230 235 243 247 241
230 247 259 290 274 130 136 153 144 132 114 99 96 106 125 133 135 130 120 110 102 99 103 103 105 113 122 130 131 149 161 153 174 163 179 212 250 231 162 141 175 200 220 235 237 242 246 244 243
232 246 268 10 37 85 122 127 116 125 130 124 124 127 129 130 129 118 109 105 103 100 92 91 102 97 99 104 129 145 144 136 182 147 170 225 288 75 108 144 175 205 227 236 233 236 243 240 240
237 245 270 143 88 111 125 119 84 80 102 109 120 121 122 127 118 114 109 105 102 96 86 88 87 82 76 89 114 106 106 102 68 40 17 19 10 347 26 50 196 201 217 225 226 233 244 253 254
231 230 224 123 139 149 130 108 101 107 112 110 110 114 121 119 111 109 109 105 99 90 89 87 81 77 71 65 64 84 80 78 92 66 28 12 10 350 350 346 342 313 309 265 261 261 265 277 290
212 211 189 176 174 157 150 129 131 119 119 116 112 112 120 112 112 107 102 97 94 91 85 87 91 85 81 78 73 74 82 97 79 64 43 17 14 11 353 348 346 329 326 339 308 284 286 288 301
218 208 188 186 186 175 157 144 139 139 131 123 119 117 119 111 106 104 100 97 94 89 83 79 96 87 78 75 69 77 75 78 67 74 61 35 17 4 355 336 326 319 318 319 308 302 303 277 275
213 213 207 193 187 185 189 170 152 150 144 137 130 126 120 107 101 100 101 96 93 91 82 67 75 82 77 70 63 69 64 68 65 56 55 40 18 4 346 328 343 332 322 325 311 307 310 311 309
212 215 209 194 190 192 196 164 157 158 153 142 134 132 126 118 114 106 97 92 88 83 75 70 66 66 70 74 74 74 67 66 70 61 47 36 19 0 330 331 352 336 340 349 322 345 315 305 298
213 218 211 198 191 201 195 159 159 164 164 151 145 142 141 133 124 115 108 102 94 86 79 71 65 52 54 71 78 80 71 72 68 64 49 35 17 357 338 336 348 344 347 343 341 336 308 289 283
239 224 213 201 185 197 190 158 169 173 170 163 157 154 150 142 129 124 119 116 107 93 86 74 65 52 47 48 53 70 71 70 70 69 50 38 18 355 346 349 338 348 346 341 338 326 315 311 328
255 236 218 186 175 197 182 164 177 178 179 171 164 158 157 145 135 134 128 120 109 98 89 82 69 56 53 55 47 61 68 70 71 58 48 24 12 360 353 355 344 351 342 338 332 337 322 313 317
252 241 224 195 177 202 199 188 181 178 181 175 166 159 153 148 145 139 132 124 116 105 92 82 69 57 50 48 62 69 80 61 47 40 51 25 15 22 5 359 355 348 341 342 335 341 327 316 309
244 242 232 224 218 211 207 224 195 180 183 176 169 164 157 150 146 144 135 124 118 114 103 88 76 62 50 44 50 53 61 49 33 29 42 25 22 24 8 6 357 351 345 344 334 358 330 320 317
255 275 250 241 242 245 227 238 216 178 187 190 180 172 157 151 145 140 132 126 121 114 105 96 86 72 56 51 53 46 50 41 32 31 37 33 37 31 16 17 6 355 347 346 340 344 341 330 327
272 272 272 264 253 249 245 233 215 190 195 188 177 159 150 142 138 130 126 123 119 113 107 101 94 82 69 59 56 54 52 41 29 26 27 30 46 35 23 20 12 0 355 346 340 343 341 337 332
246 256 270 273 263 268 292 259 188 178 174 168 157 146 146 142 139 132 128 126 120 112 104 101 95 84 72 67 61 55 42 46 42 20 26 31 39 37 22 13 5 360 354 347 347 349 343 341 338
253 246 242 254 268 285 310 312 91 119 125 131 138 138 139 143 137 132 130 128 123 115 110 105 97 86 76 72 59 52 32 35 41 29 23 34 31 34 20 8 7 1 354 352 357 351 345 348 344
252 258 256 266 265 264 241 180 115 102 112 123 132 136 140 139 134 134 132 131 131 125 116 111 109 97 85 80 70 62 48 40 38 34 36 39 31 28 21 8 4 2 360 357 356 357 355 351 344
266 277 286 272 273 272 255 176 152 141 137 133 137 139 140 137 136 134 128 127 124 122 114 112 112 104 99 88 68 71 54 49 44 43 48 42 32 26 15 7 6 5 3 2 355 353 0 359 350
267 269 280 285 294 300 301 68 130 156 146 143 140 136 140 139 139 133 127 126 127 126 125 125 121 117 106 93 78 68 54 49 52 53 49 40 26 19 19 4 2 0 9 2 359 1 1 359 355
280 286 295 298 305 313 318 80 97 121 129 134 132 126 126 130 130 130 130 129 133 133 131 126 122 115 106 97 85 69 57 51 54 54 43 39 27 19 14 2 356 6 15 6 1 0 1 358 2